Erzurum, Turkey

11:22 PM +03 on April 23, 2017 (GMT +0300)
Erzurum

Weather History for LTCE - March, 2013

Change the Weather History Date:

Tuesday, March 26, 2013

  Actual Average Record
Temperature  
Mean Temperature 36 °F -  
Max Temperature 47 °F 49 °F 57 °F (2008)
Min Temperature 25 °F 32 °F 0 °F (2005)
Degree Days  
Heating Degree Days 29    
Moisture  
Dew Point 27 °F    
Average Humidity 69    
Maximum Humidity 100    
Minimum Humidity 25    
Precipitation  
Precipitation 0.00 in 0.06 in - ()
Sea Level Pressure  
Sea Level Pressure 30.02 in    
Wind  
Wind Speed 4 mph ()    
Max Wind Speed 17 mph    
Max Gust Speed -    
Visibility 6.5 miles    
Events      
Averages and records for this station are not official NWS values.
T = Trace of Precipitation, MM = Missing Value Source: Averaged Metar Reports

Daily Weather History Graph

Daily Weather History Graph

Search for Another Location

Airport or City:

Trip Planner

Search our weather history database for the weather conditions in past years. The results will help you decide how hot, cold, wet, or windy it might be!

Date:

Astronomy

Mar. 26, 2013 Rise Set
Actual Time 5:09 AM EET 5:33 PM EET
Civil Twilight 4:42 AM EET 6:00 PM EET
Nautical Twilight 4:10 AM EET 6:32 PM EET
Astronomical Twilight 3:37 AM EET 7:05 PM EET
Moon 4:46 PM EET (3/26) 4:13 AM EET (3/26)
Length of Visible Light 13h 18m
Length of Day
12h 24m
Waxing Gibbous, 99% of the Moon is Illuminated
Mar 26
Waxing Gibbous
Mar 27
Full
Apr 3
Last Quarter
Apr 10
New
Apr 18
First Quarter

Hourly Weather History & Observations

Time (EET) Temp. Windchill Dew Point Humidity Pressure Visibility Wind Dir Wind Speed Gust Speed Precip Events Conditions
12:20 AM 30.2 °F - 26.6 °F 86% 30.09 in - Calm Calm - N/A   Clear
12:50 AM 28.4 °F - 26.6 °F 93% 30.09 in - Variable 2.3 mph - N/A   Clear
1:20 AM 28.4 °F - 26.6 °F 93% 30.09 in - Variable 2.3 mph - N/A   Clear
2:00 AM 26 °F - 26 °F 100%  in 6 mi Calm Calm - -  
2:20 AM 26.6 °F - 26.6 °F 100% 30.06 in - Variable 1.2 mph - N/A   Clear
2:50 AM 26.6 °F - 26.6 °F 100% 30.06 in - Variable 2.3 mph - N/A   Clear
3:20 AM 26.6 °F - 24.8 °F 93% 30.06 in - Variable 1.2 mph - N/A   Clear
3:50 AM 26.6 °F 22.6 °F 24.8 °F 93% 30.06 in - SW 3.5 mph - N/A   Clear
4:20 AM 26.6 °F - 26.6 °F 100% 30.06 in - Variable 1.2 mph - N/A   Clear
4:50 AM 26.6 °F - 24.8 °F 93% 30.06 in - Variable 2.3 mph - N/A   Clear
5:20 AM 26.6 °F - 24.8 °F 93% 30.06 in - Variable 1.2 mph - N/A   Clear
5:50 AM 28.4 °F 24.6 °F 26.6 °F 93% 30.06 in - SSW 3.5 mph - N/A   Clear
6:20 AM 28.4 °F - 26.6 °F 93% 30.04 in - South 2.3 mph - N/A   Clear
6:50 AM 30.2 °F - 28.4 °F 93% 30.06 in 6.2 mi Variable 1.2 mph - N/A   Mostly Cloudy
7:20 AM 32.0 °F - 30.2 °F 93% 30.06 in 6.2 mi Variable 2.3 mph - N/A   Mostly Cloudy
7:50 AM 32.0 °F - 30.2 °F 93% 30.06 in 6.2 mi Variable 2.3 mph - N/A   Mostly Cloudy
8:00 AM 32 °F - 29 °F 86%  in 12 mi NNE 2.3 mph - -   Scattered Clouds
8:20 AM 33.8 °F - 30.2 °F 87% 30.06 in 6.2 mi Variable 2.3 mph - N/A   Mostly Cloudy
8:50 AM 35.6 °F - 28.4 °F 75% 30.06 in 6.2 mi Variable 1.2 mph - N/A   Mostly Cloudy
9:20 AM 37.4 °F - 30.2 °F 75% 30.06 in 6.2 mi Variable 1.2 mph - N/A   Mostly Cloudy
9:50 AM 39.2 °F - 30.2 °F 70% 30.06 in 6.2 mi Variable 2.3 mph - N/A   Mostly Cloudy
10:20 AM 41.0 °F 39.0 °F 30.2 °F 65% 30.04 in 6.2 mi NE 3.5 mph - N/A   Mostly Cloudy
10:50 AM 42.8 °F 40.1 °F 30.2 °F 61% 30.04 in 6.2 mi East 4.6 mph - N/A   Mostly Cloudy
11:20 AM 44.6 °F 43.1 °F 28.4 °F 53% 30.04 in 6.2 mi NE 3.5 mph - N/A   Mostly Cloudy
11:50 AM 44.6 °F 42.2 °F 28.4 °F 53% 30.04 in 6.2 mi NE 4.6 mph - N/A   Mostly Cloudy
12:20 PM 46.4 °F - 28.4 °F 50% 30.04 in 6.2 mi Variable 2.3 mph - N/A   Mostly Cloudy
12:50 PM 48.2 °F - 23.0 °F 37% 30.01 in 6.2 mi South 11.5 mph - N/A   Mostly Cloudy
1:20 PM 46.4 °F 41.9 °F 21.2 °F 37% 29.98 in 6.2 mi SSW 9.2 mph - N/A   Mostly Cloudy
1:50 PM 44.6 °F 37.8 °F 21.2 °F 39% 29.98 in 6.2 mi SSW 15.0 mph - N/A   Mostly Cloudy
2:00 PM 45 °F - 21 °F 25%  in 6 mi SSW 16.1 mph - -   Partly Cloudy
2:20 PM 44.6 °F 37.2 °F 21.2 °F 39% 29.98 in 6.2 mi SSW 17.3 mph - N/A   Mostly Cloudy
2:50 PM 44.6 °F 39.7 °F 23.0 °F 43% 29.98 in 6.2 mi SSW 9.2 mph - N/A   Mostly Cloudy
3:20 PM 44.6 °F 38.8 °F 24.8 °F 46% 29.98 in 6.2 mi SSW 11.5 mph - N/A   Mostly Cloudy
3:50 PM 44.6 °F 38.1 °F 24.8 °F 46% 29.98 in 6.2 mi SW 13.8 mph - N/A   Mostly Cloudy
4:20 PM 44.6 °F 38.1 °F 24.8 °F 46% 29.98 in 6.2 mi West 13.8 mph - N/A   Mostly Cloudy
4:50 PM 42.8 °F 35.8 °F 26.6 °F 53% 29.98 in 6.2 mi WSW 13.8 mph - N/A   Mostly Cloudy
5:20 PM 42.8 °F 37.0 °F 26.6 °F 53% 29.98 in 6.2 mi West 10.4 mph - N/A   Mostly Cloudy
5:50 PM 42.8 °F 36.6 °F 26.6 °F 53% 29.98 in 6.2 mi West 11.5 mph - N/A   Mostly Cloudy
6:20 PM 41.0 °F 34.3 °F 28.4 °F 61% 29.98 in 6.2 mi WSW 11.5 mph - N/A   Mostly Cloudy
6:50 PM 41.0 °F 34.3 °F 26.6 °F 57% 29.98 in 6.2 mi West 11.5 mph - N/A   Mostly Cloudy
7:20 PM 42.8 °F 35.8 °F 26.6 °F 53% 29.98 in 6.2 mi West 13.8 mph - N/A   Mostly Cloudy
7:50 PM 42.8 °F 36.2 °F 26.6 °F 53% 29.98 in 6.2 mi West 12.7 mph - N/A   Mostly Cloudy
8:00 PM 42 °F - 26 °F 41%  in 12 mi West 12.7 mph - -   Partly Cloudy
8:20 PM 39.2 °F 33.6 °F 26.6 °F 61% 29.98 in 6.2 mi WNW 8.1 mph - N/A   Mostly Cloudy
8:50 PM 39.2 °F - 26.6 °F 61% 29.98 in 6.2 mi Variable 2.3 mph - N/A   Mostly Cloudy
9:20 PM 41.0 °F 38.0 °F 26.6 °F 57% 29.98 in 6.2 mi WNW 4.6 mph - N/A   Mostly Cloudy
9:50 PM 39.2 °F 34.2 °F 26.6 °F 61% 29.95 in 6.2 mi NW 6.9 mph - N/A   Mostly Cloudy
10:20 PM 37.4 °F 32.1 °F 28.4 °F 70% 29.95 in 6.2 mi NNW 6.9 mph - N/A   Mostly Cloudy
10:50 PM 35.6 °F - 28.4 °F 75% 29.95 in 6.2 mi Variable 2.3 mph - N/A   Mostly Cloudy
11:20 PM 33.8 °F 30.8 °F 28.4 °F 81% 29.92 in 6.2 mi SE 3.5 mph - N/A   Mostly Cloudy
11:50 PM 33.8 °F 30.8 °F 28.4 °F 81% 29.92 in 6.2 mi East 3.5 mph - N/A   Mostly Cloudy